Flag for Uzbekistan Weather past 2 weeks in Tashkent, Uzbekistan

Now
34 °F

Clear.


Feels Like: 31 °F
Forecast: 29 / 45 °F
Wind: 3 mph from Northeast

Location: Tashkent

Current Time: Jan 30, 2015 at 2:24:48 AM

Latest Report: Jan 30, 2015 at 1:30 AM


Visibility: 10 mi

Pressure: 30.09 "Hg

Humidity: 56%

Dew point: 19 °F

Location of TashkentLocation

Historic Weather in Tashkent — Graph

°F

Tashkent temperature yesterday

Maximum temperature yesterday: 39 °F (at 1:00 PM)
Minimum temperature yesterday: 21 °F (at 2:30 AM)
Average temperature yesterday: 30 °F

Past Weeks' High & Low Weather Summary

 TemperatureHumidityPressure
High61 °F (Jan 17, 12:30 PM)100% (Jan 19, 4:30 AM)30.60 "Hg (Jan 19, 4:30 AM)
Low16 °F (Jan 28, 7:00 AM)21% (Jan 16, 2:30 PM)30.01 "Hg (Jan 17, 2:00 AM)
Average33 °F76%30.30 "Hg
* Reported Jan 15 1:00 AM — Jan 30 1:00 AM, Tashkent, Weather by CustomWeather, © 2014

Note: Actual official high and low records may vary slightly from our data, if they occured in-between our weather recording intervals... More about our weather records

Advertising

Tashkent weather history for previous 24 hours

 ConditionsComfort  
Time TempWeatherWind HumidityBarometerVisibility
1:00 AM
Jan 30
34 °FClear.7 mph56%30.09 "Hg10 mi
12:30 AM34 °FClear.8 mph51%30.09 "Hg10 mi
12:00 AM34 °FClear.7 mph51%30.09 "Hg10 mi
11:30 PM
Jan 29
32 °FClear.6 mph51%30.09 "Hg10 mi
11:00 PM32 °FClear.3 mph51%30.12 "Hg10 mi
10:30 PM30 °FClear.3 mph64%30.12 "Hg10 mi
10:00 PM34 °FPassing clouds.7 mph48%30.12 "HgN/A
9:30 PM32 °FClear.7 mph55%30.12 "Hg10 mi
9:00 PM34 °FPassing clouds.6 mph44%30.12 "HgN/A
8:30 PM34 °FPassing clouds.7 mph48%30.15 "HgN/A
8:00 PM34 °FPassing clouds.5 mph44%30.15 "HgN/A
7:30 PM34 °FPassing clouds.2 mph44%30.15 "HgN/A
7:00 PM34 °FClear.5 mph44%30.15 "Hg10 mi
6:30 PM34 °FClear.3 mph48%30.15 "Hg10 mi
6:00 PM34 °FClear.No wind51%30.15 "Hg2 mi
5:30 PM36 °FClear.5 mph44%30.15 "Hg4 mi
5:00 PM36 °FClear.6 mph48%30.15 "Hg4 mi
4:30 PM37 °FClear.6 mph48%30.15 "Hg4 mi
4:00 PM37 °FClear.6 mph48%30.15 "Hg4 mi
3:30 PM39 °FPassing clouds.3 mph39%30.15 "Hg3 mi
3:00 PM39 °FPassing clouds.2 mph39%30.15 "Hg3 mi
2:30 PM37 °FClear.1 mph38%30.15 "Hg3 mi
2:00 PM37 °FClear.3 mph41%30.18 "Hg3 mi
1:30 PM39 °FClear.1 mph42%30.18 "Hg3 mi
1:00 PM39 °FClear.1 mph39%30.18 "Hg3 mi
12:30 PM36 °FClear.5 mph48%30.18 "Hg3 mi
12:00 PM34 °FClear.7 mph56%30.21 "Hg2 mi
11:30 AM32 °FClear.7 mph60%30.24 "Hg2 mi
11:00 AM34 °FClear.3 mph51%30.24 "Hg2 mi
10:30 AM32 °FClear.5 mph55%30.24 "Hg2 mi
10:00 AM30 °FClear.3 mph64%30.24 "Hg2 mi
9:30 AM28 °FClear.1 mph69%30.24 "Hg2 mi
9:00 AM27 °FIce fog.No wind69%30.24 "Hg2 mi
8:30 AM25 °FIce fog.5 mph74%30.21 "Hg2 mi
8:00 AM23 °FIce fog.2 mph80%30.21 "Hg2 mi
7:30 AM25 °FIce fog.3 mph80%30.21 "Hg2 mi
7:00 AM25 °FIce fog.3 mph80%30.18 "Hg2 mi
6:30 AM23 °FIce fog.3 mph86%30.18 "Hg2 mi
6:00 AM23 °FIce fog.3 mph86%30.18 "Hg2 mi
5:30 AM23 °FIce fog.2 mph86%30.18 "Hg1 mi
5:00 AM23 °FIce fog.2 mph86%30.21 "Hg1 mi
4:30 AM23 °FIce fog.No wind80%30.21 "Hg1 mi
4:00 AM23 °FIce fog.No wind86%30.21 "Hg1 mi
3:30 AM23 °FIce fog.No wind80%30.21 "Hg1 mi
3:00 AM23 °FIce fog.5 mph80%30.21 "Hg2 mi
2:30 AM21 °FIce fog.5 mph80%30.21 "Hg2 mi
2:00 AM23 °FIce fog.3 mph80%30.21 "Hg2 mi
Weather by CustomWeather, © 2014

See weather overviewHow to use our weather pages